CZ-6A DEB, 54895

Orbit data source: Space-Track

CZ-6A DEB, 54895 is space debris in SSO originally from a launch on Fri, 11 Nov 2022 UTC launched from the Taiyaun Space Center, China (TSC). Debris objects in space refer to the collection of defunct objects orbiting the Earth. Examples of debris include non-operational satellites, rocket bodies, and fragments generated from explosions, collisions, or faulty payload assembly.

Loading next visibility...
Identifier
54895, 2022-151QG
Orbit
SSO
Country
Flag of CNCN / PRC
Related business
Manufacturer
SAST
Mission
Spacecraft
Bus & Motor
Unknown
Mass
Unknown
Launch date (UTC)
2022-11-11 (3 years ago)
Launch vehicle
Unknown
Launch site
Taiyaun Space Center, China (TSC)
Object type
Payload
Rocket body
Debris
Shape & HBR
Unknown shape, 0.1 m
Radar Cross Section
Small (<0.1 m²)

Expand to show TLE details & history
Last TLE update: 19 hours ago

TLE from 19 hours ago
0 CZ-6A DEB
1 54895U 22151QG  25350.07525842  .00007904  00000-0  14284-2 0  9991
2 54895  98.6439  39.2609 0075038 141.2606 219.4010 14.64862386160589
Epoch: 2025-12-16T01:48Z
TLE epoch observation values (Epoch: 2025-12-16T01:48:22.327Z)
Latitude
-0.00002°
Longitude
-72.79681°
Altitude
721.574 km
Speed
7.473 km/s
True Right ascension
02h 37m 02s
True Declination
0° 00' 00"
Sunlit
Object was in full shadow at epoch
Visualization orbit readout
Latitude
Unknown
Longitude
Unknown
Altitude
Unknown
Speed
Unknown
Apparent Right ascension
Unknown
Apparent Declination
Unknown
Sunlit
N/A
Visualization observer readout
Local Sidereal Time
19:42:37
Azimuth
Unknown
Elevation
Unknown
Doppler factor
Unknown
Orbital elements
Apogee altitude
727.535 km
Perigee altitude
621.69 km
Semi-major axis
7,052.75 km
Eccentricity
0.0075
Inclination
98.6439°
RAAN
39.2609°
Arg. of periapsis
141.2606°
True anomaly
218.85914°
Mean anomaly
219.401°
Eccentric anomaly
219.12968°
Mean motion
3.66442 °/min
Orbital period
98.24 mins
BSTAR
0.0014284
Loading maneuver chart data...
Computing Atmospheric mass density...
Loading historical data...
Loading historical data...
Loading historical data...
Loading historical data...
Loading historical data...
Loading historical data...
Loading historical data...

Documentation

Showing up to 5 results
|